Regional Weather Roundup
Issued by NWS

Home | Current Version | Previous Version | Graphics & Text | Print | Product List | Glossary On
Versions: 1 2 3 4 5 6 7 8 9 10 11 12 13 14 15 16 17 18 19 20 21 22 23 24 25 26 27 28 29 30 31 32 33 34 35 36 37 38 39 40 41 42 43 44 45 46 47 48 49 50
106
ASUS45 KBOI 201210
RWRID

IDAHO REGIONAL WEATHER ROUNDUP
NATIONAL WEATHER SERVICE BOISE ID
500 AM MST MON NOV 20 2017

NOTE: "FAIR" INDICATES FEW OR NO CLOUDS BELOW 12000 FEET
WITH NO SIGNIFICANT WEATHER AND/OR OBSTRUCTIONS TO VISIBILITY

IDZ012-014-201300-
SOUTHWEST IDAHO


CITY           SKY/WX    TMP DP  RH WIND       PRES   REMARKS
BOISE          CLOUDY    47  29  49 SE15      29.92F
CALDWELL       CLOUDY    42  30  62 S6        29.93F
MOUNTAIN HOME  CLOUDY    37  26  64 E15       29.96F WCI  28
$$

IDZ016-017-201300-
SOUTHCENTRAL IDAHO


CITY           SKY/WX    TMP DP  RH WIND       PRES   REMARKS
BURLEY         CLOUDY    31  27  85 CALM      29.97F
JEROME         CLOUDY    34  26  72 E9        29.99F WCI  27
TWIN FALLS     CLOUDY    41  28  60 S8        29.98F
$$

IDZ019>023-201300-
SOUTHEAST IDAHO


CITY           SKY/WX    TMP DP  RH WIND       PRES   REMARKS
IDAHO FALLS    CLOUDY    27  25  92 N6        29.99F WCI  20
POCATELLO      CLOUDY    43  19  38 S17       29.96F
REXBURG        CLOUDY    27  24  89 CALM      29.97F
$$

IDZ006-010-011-018-031-032-201300-
CENTRAL IDAHO MOUNTAINS


CITY           SKY/WX    TMP DP  RH WIND       PRES   REMARKS
MCCALL         CLOUDY    35  29  78 SE7       29.90R WCI  29
HAILEY         CLOUDY    30  21  69 NW8       30.01R WCI  23
STANLEY          N/A     35  25  66 SE8       29.95F WCI  29
SALMON         CLOUDY    34  22  61 CALM      29.86F
CHALLIS        CLOUDY    30  21  69 CALM      29.90F
$$

IDZ002-004-006-007-026-201300-
NORTHERN IDAHO


CITY           SKY/WX    TMP DP  RH WIND       PRES   REMARKS
LEWISTON       CLOUDY    50  35  56 S8        29.73F
LOWELL           N/A     36  35  96 CALM      29.88S
COEUR D`ALENE  LGT RAIN  37  35  92 S10       29.72S WCI  30
MULLAN PASS    SNOW      27  25  92 S7        29.67R VSB 1/4 WCI  19
$$




USA.gov is the U.S. government's official web portal to all federal, state and local government web resources and services.